Ellensburg, WA
on Monday, January 28, 2013

Monday
Previous Day Next Day
Daily Summary
 ActualAverage (KYKM)Record (KYKM)
Temperature
Mean Temperature °F 33°F  
Max Temperature 41°F 42°F 57°F (1974)
Min Temperature 21°F 25°F -12°F (1980)
Degree Days
Heating Degree Days 34 32  
Month to date heating degree days 962  
Since 1 July heating degree days 3625  
Cooling Degree Days 0 0  
Month to date cooling degree days 0  
Year to date cooling degree days 0  
Moisture
Dew Point 26°F   
Average Humidity 76    
Maximum Humidity 89    
Minimum Humidity 65    
Precipitation
Precipitation 0.00 in 0.03 in 0.56 in (1995)
Month to date precipitation 1.05  
Year to date precipitation 1.05  
Snow
Snow 0.00 in 0.20 in 2.60 in (1956)
Month to date snowfall 5.0  
Year to date snowfall 5.0  
Since 1 July snowfall 18.0  
Snow Depth in   
Wind
Wind Speed 5 mph   
Max Wind Speed 21 mph   
Max Gust Speed 29 mph   
Visibility 10 miles   
Events     

Key: T is trace of precipitation, MM is missing value
Source: NWS Daily Summary
Time(PST)TemperatureDew PointHumidity Pressure Visibility Wind DirectionWind SpeedGust SpeedPrecipitationEvents Conditions
12:53 AM 24.1°F 21.0°F 88% 29.98 in - Calm Calm - N/A   Overcast
1:53 AM 24.1°F 21.0°F 88% 29.98 in - Calm Calm - N/A   Overcast
4:53 AM 21.9°F 19.0°F 89% 29.99 in - Calm Calm - N/A   Overcast
5:53 AM 21.9°F 18.0°F 85% 29.99 in - Calm Calm - N/A   Overcast
6:34 AM 24.8°F 19.4°F 80% 29.92 in - WNW 11.5 mph - N/A   Scattered Clouds
6:53 AM 28.0°F 23.0°F 81% 29.99 in - WNW 8.1 mph - N/A   Clear
7:53 AM 27.0°F 23.0°F 85% 30.00 in - Variable 3.5 mph - N/A   Clear
8:53 AM 24.1°F 19.0°F 81% 30.01 in - Calm Calm - N/A   Clear
9:53 AM 32.0°F 26.1°F 79% 29.99 in - West 3.5 mph - N/A   Clear
10:53 AM 33.1°F 28.0°F 82% 29.99 in - Calm Calm - N/A   Clear
11:53 AM 36.0°F 28.9°F 76% 29.98 in - West 3.5 mph - N/A   Clear
12:53 PM 39.0°F 28.9°F 67% 29.95 in 10.0 miles Variable 3.5 mph - N/A   Mostly Cloudy
1:53 PM 39.9°F 28.9°F 65% 29.94 in 10.0 miles NW 12.7 mph 17.3 mph N/A   Clear
2:53 PM 41.0°F 30.0°F 65% 29.92 in 10.0 miles WNW 13.8 mph - N/A   Clear
3:53 PM 39.0°F 30.0°F 70% 29.93 in 10.0 miles WNW 13.8 mph - N/A   Clear
4:53 PM 37.9°F 30.0°F 73% 29.91 in 10.0 miles NW 8.1 mph - N/A   Clear
5:53 PM 37.9°F 28.9°F 70% 29.92 in 10.0 miles WNW 6.9 mph - N/A   Clear
6:53 PM 37.9°F 30.0°F 73% 29.91 in 10.0 miles NW 11.5 mph - N/A   Clear
7:53 PM 37.9°F 30.0°F 73% 29.91 in 10.0 miles WNW 12.7 mph - N/A   Clear
8:53 PM 37.9°F 30.0°F 73% 29.91 in 10.0 miles WNW 15.0 mph 25.3 mph N/A   Clear
9:53 PM 37.0°F 30.0°F 76% 29.92 in 10.0 miles WNW 20.7 mph 26.5 mph N/A   Clear
10:53 PM 39.0°F 30.0°F 70% 29.92 in 10.0 miles WNW 20.7 mph 28.8 mph N/A   Clear
11:53 PM 39.0°F 30.0°F 70% 29.93 in 10.0 miles WNW 17.3 mph 25.3 mph N/A   Clear
Moon Phase
Jan. 28 Feb. 03 Feb. 10 Feb. 17 Feb. 25
Sunrise:07:31 AM (PST) Moon Rise:07:10 PM (PST)1/28
Sunset:04:59 PM (PST) Moon Set:07:50 AM (PST)1/28

Copyright © 2014 The Weather Underground, Inc.